| time (UTC) | temp C | wind direction | speed KPH | gust KPH | rain 1hr cm | rain 24hr cm | rain mn cm | humidity % | barometer mb |
| 20260505140209 | 21 | 171 | 4.8 | 11.3 | 0.00 | 0.00 | 0.00 | 48 | 1013.5 |
| 20260505130202 | 19 | 162 | 1.6 | 8.0 | 0.00 | 0.00 | 0.00 | 52 | 1013.6 |
| 20260505125000 | 18 | 205 | 3.2 | 11.3 | 0.00 | 0.00 | 0.00 | 53 | 1013.9 |
| 20260505124202 | 18 | 155 | 3.2 | 12.9 | 0.00 | 0.00 | 0.00 | 53 | 1013.8 |
| 20260505123701 | 18 | 234 | 3.2 | 12.9 | 0.00 | 0.00 | 0.00 | 55 | 1013.8 |
| 20260505123203 | 17 | 136 | 1.6 | 8.0 | 0.00 | 0.00 | 0.00 | 55 | 1013.7 |
| 20260505122703 | 17 | 171 | 1.6 | 11.3 | 0.00 | 0.00 | 0.00 | 56 | 1013.7 |
| 20260505122253 | 17 | 100 | 3.2 | 14.5 | 0.00 | 0.00 | 0.00 | 58 | 1013.8 |
| 20260505122234 | 17 | 162 | 1.6 | 14.5 | 0.00 | 0.00 | 0.00 | 56 | 1013.7 |
| 20260505121203 | 17 | 198 | 3.2 | 8.0 | 0.00 | 0.00 | 0.00 | 58 | 1013.7 |
| 20260505120704 | 17 | 178 | 1.6 | 8.0 | 0.00 | 0.00 | 0.00 | 58 | 1013.6 |
| 20260505120204 | 16 | 125 | 1.6 | 8.0 | 0.00 | 0.00 | 0.00 | 58 | 1013.6 |
| 20260505115954 | 16 | 153 | 1.6 | 6.4 | 0.00 | 0.00 | 0.00 | 59 | 1013.6 |
| 20260505115202 | 16 | 134 | 1.6 | 6.4 | 0.00 | 0.00 | 0.00 | 59 | 1013.6 |
| 20260505114702 | 16 | 121 | 1.6 | 6.4 | 0.00 | 0.00 | 0.00 | 60 | 1013.5 |
| 20260505114203 | 16 | 117 | 1.6 | 4.8 | 0.00 | 0.00 | 0.00 | 61 | 1013.5 |
| 20260505113704 | 16 | 116 | 1.6 | 6.4 | 0.00 | 0.00 | 0.00 | 62 | 1013.4 |
| 20260505113203 | 15 | 100 | 1.6 | 6.4 | 0.00 | 0.00 | 0.00 | 62 | 1013.4 |
| 20260505112703 | 15 | 73 | 1.6 | 4.8 | 0.00 | 0.00 | 0.00 | 63 | 1013.4 |
| 20260505112201 | 15 | 143 | 1.6 | 6.4 | 0.00 | 0.00 | 0.00 | 62 | 1013.4 |
| 20260505111704 | 15 | 100 | 1.6 | 6.4 | 0.00 | 0.00 | 0.00 | 61 | 1013.4 |
| 20260505111452 | 15 | 100 | 1.6 | 4.8 | 0.00 | 0.00 | 0.00 | 61 | 1013.3 |
| 20260505110701 | 15 | 113 | 1.6 | 6.4 | 0.00 | 0.00 | 0.00 | 61 | 1013.2 |
| 20260505110200 | 15 | 100 | 1.6 | 6.4 | 0.00 | 0.00 | 0.00 | 61 | 1013.2 |
| 20260505102136 | 14 | 117 | 1.6 | 4.8 | 0.00 | 0.00 | 0.00 | 67 | 1012.8 |
| 20260505101636 | 14 | 108 | 1.6 | 4.8 | 0.00 | 0.00 | 0.00 | 67 | 1012.8 |
| 20260505101137 | 14 | 143 | 1.6 | 4.8 | 0.00 | 0.00 | 0.00 | 67 | 1012.8 |
| 20260505100633 | 14 | 73 | 1.6 | 4.8 | 0.00 | 0.00 | 0.00 | 68 | 1012.8 |
| 20260505100134 | 14 | 100 | 1.6 | 4.8 | 0.00 | 0.00 | 0.00 | 68 | 1012.7 |
| 20260505095633 | 14 | 73 | 1.6 | 4.8 | 0.00 | 0.00 | 0.00 | 67 | 1012.8 |
| 20260505095434 | 14 | 82 | 1.6 | 6.4 | 0.00 | 0.00 | 0.00 | 68 | 1012.7 |
| 20260505094633 | 14 | 107 | 1.6 | 6.4 | 0.00 | 0.00 | 0.00 | 68 | 1012.7 |
| 20260505094137 | 13 | 82 | 1.6 | 6.4 | 0.00 | 0.00 | 0.00 | 69 | 1012.6 |
| 20260505093637 | 13 | 100 | 1.6 | 4.8 | 0.00 | 0.00 | 0.00 | 70 | 1012.6 |
| 20260505093134 | 13 | 54 | 1.6 | 4.8 | 0.00 | 0.00 | 0.00 | 70 | 1012.5 |
| 20260505092632 | 13 | 110 | 1.6 | 4.8 | 0.00 | 0.00 | 0.00 | 71 | 1012.6 |
| 20260505092131 | 13 | 89 | 1.6 | 4.8 | 0.00 | 0.00 | 0.00 | 73 | 1012.5 |
| 20260505091630 | 13 | 69 | 1.6 | 4.8 | 0.00 | 0.00 | 0.00 | 72 | 1012.5 |
| 20260505091131 | 13 | 100 | 1.6 | 4.8 | 0.00 | 0.00 | 0.00 | 75 | 1012.4 |
| 20260505090632 | 13 | 11 | 1.6 | 4.8 | 0.00 | 0.00 | 0.00 | 75 | 1012.4 |
| 20260505090130 | 13 | 70 | 1.6 | 6.4 | 0.00 | 0.00 | 0.00 | 76 | 1012.4 |
| 20260505085629 | 12 | 54 | 1.6 | 6.4 | 0.00 | 0.00 | 0.00 | 77 | 1012.3 |
| 20260505085430 | 12 | 11 | 1.6 | 4.8 | 0.00 | 0.00 | 0.00 | 79 | 1012.4 |
| 20260505084629 | 12 | 82 | 1.6 | 4.8 | 0.00 | 0.00 | 0.00 | 79 | 1012.5 |
| 20260505084427 | 12 | 28 | 0.0 | 4.8 | 0.00 | 0.00 | 0.00 | 79 | 1012.5 |
| 20260505083630 | 12 | 54 | 0.0 | 1.6 | 0.00 | 0.00 | 0.00 | 79 | 1012.5 |
| 20260505083129 | 12 | 11 | 0.0 | 1.6 | 0.00 | 0.00 | 0.00 | 80 | 1012.5 |
| 20260505082630 | 12 | 54 | 0.0 | 1.6 | 0.00 | 0.00 | 0.00 | 80 | 1012.5 |
| 20260505082428 | 12 | 296 | 0.0 | 1.6 | 0.00 | 0.00 | 0.00 | 80 | 1012.5 |
| 20260505081630 | 12 | 54 | 1.6 | 1.6 | 0.00 | 0.00 | 0.00 | 80 | 1012.5 |
| 20260505081129 | 12 | 54 | 0.0 | 1.6 | 0.00 | 0.00 | 0.00 | 80 | 1012.3 |
| 20260505080629 | 12 | 11 | 0.0 | 1.6 | 0.00 | 0.00 | 0.00 | 80 | 1012.4 |
| 20260505080130 | 12 | 100 | 0.0 | 1.6 | 0.00 | 0.00 | 0.00 | 80 | 1012.4 |
| 20260505075629 | 12 | 279 | 0.0 | 1.6 | 0.00 | 0.00 | 0.00 | 80 | 1012.4 |
| 20260505075130 | 12 | 54 | 0.0 | 1.6 | 0.00 | 0.00 | 0.00 | 80 | 1012.4 |
| 20260505074631 | 12 | 54 | 0.0 | 1.6 | 0.00 | 0.00 | 0.00 | 80 | 1012.2 |
| 20260505074131 | 12 | 11 | 0.0 | 1.6 | 0.00 | 0.00 | 0.00 | 81 | 1012.4 |
| 20260505073623 | 12 | 54 | 0.0 | 4.8 | 0.00 | 0.00 | 0.00 | 80 | 1012.4 |
| 20260505073118 | 12 | 54 | 0.0 | 4.8 | 0.00 | 0.00 | 0.00 | 80 | 1012.3 |
| 20260505072616 | 12 | 82 | 0.0 | 1.6 | 0.00 | 0.00 | 0.00 | 80 | 1012.2 |
| 20260505072109 | 12 | 100 | 1.6 | 1.6 | 0.00 | 0.00 | 0.00 | 81 | 1012.2 |
| 20260505071603 | 12 | 82 | 1.6 | 1.6 | 0.00 | 0.00 | 0.00 | 81 | 1012.2 |
| 20260505071356 | 12 | 100 | 0.0 | 1.6 | 0.00 | 0.00 | 0.00 | 80 | 1012.2 |
| 20260505070603 | 12 | 54 | 0.0 | 1.6 | 0.00 | 0.00 | 0.00 | 80 | 1012.3 |
| 20260505070104 | 12 | 54 | 0.0 | 4.8 | 0.00 | 0.00 | 0.00 | 80 | 1012.2 |
| 20260505065604 | 12 | 82 | 1.6 | 4.8 | 0.00 | 0.00 | 0.00 | 80 | 1012.2 |
| 20260505065352 | 12 | 73 | 1.6 | 4.8 | 0.00 | 0.00 | 0.00 | 80 | 1012.2 |
| 20260505064601 | 12 | 82 | 1.6 | 4.8 | 0.00 | 0.00 | 0.00 | 79 | 1012.1 |
| 20260505064358 | 12 | 73 | 1.6 | 4.8 | 0.00 | 0.00 | 0.00 | 79 | 1012.1 |
| 20260505063601 | 12 | 37 | 1.6 | 4.8 | 0.00 | 0.00 | 0.00 | 78 | 1012.1 |
| 20260505063104 | 12 | 11 | 1.6 | 4.8 | 0.00 | 0.00 | 0.00 | 78 | 1012.2 |
| 20260505062601 | 12 | 54 | 1.6 | 4.8 | 0.00 | 0.00 | 0.00 | 77 | 1012.2 |
| 20260505062103 | 12 | 73 | 0.0 | 4.8 | 0.00 | 0.00 | 0.00 | 77 | 1012.1 |
| 20260505061602 | 13 | 11 | 1.6 | 4.8 | 0.00 | 0.00 | 0.00 | 77 | 1012.2 |
| 20260505061104 | 13 | 261 | 1.6 | 4.8 | 0.00 | 0.00 | 0.00 | 76 | 1012.2 |
| 20260505060601 | 13 | 326 | 0.0 | 4.8 | 0.00 | 0.00 | 0.00 | 76 | 1012.1 |
| 20260505055858 | 13 | 11 | 0.0 | 1.6 | 0.00 | 0.00 | 0.00 | 75 | 1012.1 |
| 20260505055357 | 13 | 54 | 0.0 | 1.6 | 0.00 | 0.00 | 0.00 | 74 | 1012.1 |
| 20260505054602 | 13 | 54 | 0.0 | 1.6 | 0.00 | 0.00 | 0.00 | 74 | 1012.2 |
| 20260505054101 | 13 | 54 | 0.0 | 1.6 | 0.00 | 0.00 | 0.00 | 73 | 1012.2 |
| 20260505053603 | 13 | 11 | 0.0 | 1.6 | 0.00 | 0.00 | 0.00 | 73 | 1012.1 |
| 20260505053102 | 13 | 54 | 0.0 | 1.6 | 0.00 | 0.00 | 0.00 | 73 | 1012.2 |
| 20260505052851 | 13 | 11 | 0.0 | 1.6 | 0.00 | 0.00 | 0.00 | 72 | 1012.2 |
| 20260505052104 | 13 | 82 | 0.0 | 1.6 | 0.00 | 0.00 | 0.00 | 72 | 1012.2 |
| 20260505051602 | 13 | 100 | 0.0 | 1.6 | 0.00 | 0.00 | 0.00 | 72 | 1012.2 |
| 20260505051351 | 14 | 54 | 0.0 | 4.8 | 0.00 | 0.00 | 0.00 | 71 | 1012.3 |
| 20260505050652 | 14 | 82 | 1.6 | 1.6 | 0.00 | 0.00 | 0.00 | 71 | 1012.2 |
| 20260505050637 | 14 | 54 | 1.6 | 4.8 | 0.00 | 0.00 | 0.00 | 71 | 1012.2 |
| 20260505041600 | 15 | 54 | 0.0 | 4.8 | 0.00 | 0.00 | 0.00 | 65 | 1012.3 |
| 20260505041101 | 15 | 54 | 1.6 | 4.8 | 0.00 | 0.00 | 0.00 | 66 | 1012.2 |
| 20260505040602 | 15 | 67 | 1.6 | 4.8 | 0.00 | 0.00 | 0.00 | 65 | 1012.2 |
| 20260505035603 | 15 | 11 | 1.6 | 4.8 | 0.00 | 0.00 | 0.00 | 64 | 1012.2 |
| 20260505035101 | 15 | 21 | 1.6 | 4.8 | 0.00 | 0.00 | 0.00 | 64 | 1012.0 |
| 20260505034603 | 15 | 54 | 1.6 | 4.8 | 0.00 | 0.00 | 0.00 | 63 | 1012.0 |
| 20260505034353 | 16 | 73 | 0.0 | 4.8 | 0.00 | 0.00 | 0.00 | 64 | 1012.0 |
| 20260505033602 | 16 | 73 | 0.0 | 8.0 | 0.00 | 0.00 | 0.00 | 62 | 1012.0 |
| 20260505033101 | 16 | 73 | 1.6 | 8.0 | 0.00 | 0.00 | 0.00 | 63 | 1012.0 |
| 20260505032602 | 16 | 11 | 1.6 | 1.6 | 0.00 | 0.00 | 0.00 | 62 | 1012.0 |
| 20260505032101 | 16 | 326 | 1.6 | 4.8 | 0.00 | 0.00 | 0.00 | 62 | 1012.0 |
| 20260505031602 | 17 | 100 | 1.6 | 4.8 | 0.00 | 0.00 | 0.00 | 60 | 1012.0 |
| 20260505031102 | 17 | 70 | 1.6 | 4.8 | 0.00 | 0.00 | 0.00 | 58 | 1012.0 |
| 20260505030602 | 17 | 0 | 1.6 | 4.8 | 0.00 | 0.00 | 0.00 | 58 | 1012.0 |
| 20260505030352 | 17 | 28 | 0.0 | 1.6 | 0.00 | 0.00 | 0.00 | 56 | 1012.0 |
| 20260505025601 | 18 | 54 | 0.0 | 1.6 | 0.00 | 0.00 | 0.00 | 54 | 1011.9 |
| 20260505025102 | 18 | 326 | 0.0 | 1.6 | 0.00 | 0.00 | 0.00 | 53 | 1011.9 |
| 20260505024603 | 18 | 54 | 1.6 | 6.4 | 0.00 | 0.00 | 0.00 | 53 | 1012.0 |
| 20260505024353 | 18 | 234 | 1.6 | 6.4 | 0.00 | 0.00 | 0.00 | 52 | 1012.1 |
| 20260505023953 | 18 | 117 | 1.6 | 8.0 | 0.00 | 0.00 | 0.00 | 52 | 1012.1 |
| 20260505023947 | 18 | 100 | 1.6 | 8.0 | 0.00 | 0.00 | 0.00 | 52 | 1012.0 |
| 20260505022605 | 18 | 234 | 1.6 | 4.8 | 0.00 | 0.00 | 0.00 | 53 | 1012.1 |
| 20260505022154 | 18 | 100 | 1.6 | 6.4 | 0.00 | 0.00 | 0.00 | 54 | 1012.0 |
| 20260505022139 | 18 | 143 | 1.6 | 6.4 | 0.00 | 0.00 | 0.00 | 54 | 1012.1 |
| 20260505021102 | 18 | 158 | 1.6 | 4.8 | 0.00 | 0.00 | 0.00 | 56 | 1012.0 |
| 20260505020602 | 18 | 100 | 1.6 | 4.8 | 0.00 | 0.00 | 0.00 | 57 | 1012.1 |
| 20260505020354 | 18 | 143 | 1.6 | 4.8 | 0.00 | 0.00 | 0.00 | 54 | 1011.9 |
| 20260505015601 | 18 | 54 | 1.6 | 4.8 | 0.00 | 0.00 | 0.00 | 54 | 1011.8 |
| 20260505015101 | 18 | 11 | 1.6 | 4.8 | 0.00 | 0.00 | 0.00 | 54 | 1011.9 |
| 20260505014601 | 18 | 54 | 1.6 | 4.8 | 0.00 | 0.00 | 0.00 | 52 | 1011.8 |
| 20260505014101 | 18 | 11 | 1.6 | 4.8 | 0.00 | 0.00 | 0.00 | 53 | 1011.8 |
| 20260505013601 | 19 | 54 | 1.6 | 4.8 | 0.00 | 0.00 | 0.00 | 51 | 1011.7 |
| 20260505013101 | 19 | 188 | 1.6 | 4.8 | 0.00 | 0.00 | 0.00 | 49 | 1011.7 |
| 20260505012602 | 20 | 326 | 1.6 | 4.8 | 0.00 | 0.00 | 0.00 | 48 | 1011.6 |
| 20260505012103 | 19 | 54 | 1.6 | 4.8 | 0.00 | 0.00 | 0.00 | 50 | 1011.6 |
| 20260505011601 | 20 | 100 | 1.6 | 4.8 | 0.00 | 0.00 | 0.00 | 50 | 1011.7 |
| 20260505011101 | 20 | 296 | 1.6 | 4.8 | 0.00 | 0.00 | 0.00 | 45 | 1011.5 |
| 20260505010847 | 21 | 100 | 1.6 | 6.4 | 0.00 | 0.00 | 0.00 | 44 | 1011.4 |
| 20260505010840 | 21 | 129 | 1.6 | 6.4 | 0.00 | 0.00 | 0.00 | 43 | 1011.4 |
| 20260505010756 | 20 | 89 | 0.0 | 4.8 | 0.00 | 0.00 | 0.00 | 45 | 1011.4 |
| 20260505010214 | 20 | 11 | 0.0 | 4.8 | 0.00 | 0.00 | 0.00 | 44 | 1011.4 |
| 20260505004602 | 21 | 143 | 1.6 | 8.0 | 0.00 | 0.00 | 0.00 | 42 | 1011.4 |
| 20260505004101 | 21 | 234 | 1.6 | 8.0 | 0.00 | 0.00 | 0.00 | 41 | 1011.3 |
| 20260505003555 | 22 | 160 | 1.6 | 6.4 | 0.00 | 0.00 | 0.00 | 40 | 1011.3 |
| 20260505003345 | 22 | 174 | 1.6 | 6.4 | 0.00 | 0.00 | 0.00 | 40 | 1011.3 |
| 20260505002543 | 22 | 125 | 1.6 | 6.4 | 0.00 | 0.00 | 0.00 | 39 | 1011.2 |
| 20260505002039 | 22 | 143 | 1.6 | 8.0 | 0.00 | 0.00 | 0.00 | 39 | 1011.2 |
| 20260505001530 | 22 | 153 | 1.6 | 8.0 | 0.00 | 0.00 | 0.00 | 38 | 1011.3 |
| 20260505001030 | 22 | 143 | 1.6 | 11.3 | 0.00 | 0.00 | 0.00 | 38 | 1011.2 |
| 20260505000532 | 22 | 175 | 3.2 | 11.3 | 0.00 | 0.00 | 0.00 | 37 | 1011.2 |
| 20260505000330 | 22 | 208 | 3.2 | 17.7 | 0.00 | 0.00 | 0.00 | 37 | 1011.2 |
| 20260504235532 | 23 | 338 | 3.2 | 17.7 | 0.00 | 0.00 | 0.00 | 37 | 1011.1 |
| 20260504235323 | 23 | 188 | 3.2 | 14.5 | 0.00 | 0.00 | 0.00 | 37 | 1011.1 |
| 20260504234531 | 23 | 234 | 3.2 | 12.9 | 0.00 | 0.00 | 0.00 | 36 | 1011.1 |
| 20260504234031 | 23 | 171 | 3.2 | 12.9 | 0.00 | 0.00 | 0.00 | 36 | 1011.1 |
| 20260504233530 | 23 | 171 | 3.2 | 12.9 | 0.00 | 0.00 | 0.00 | 36 | 1011.0 |
| 20260504233329 | 23 | 107 | 3.2 | 12.9 | 0.00 | 0.00 | 0.00 | 36 | 1011.0 |
| 20260504232531 | 23 | 129 | 3.2 | 17.7 | 0.00 | 0.00 | 0.00 | 35 | 1011.0 |
| 20260504232032 | 23 | 136 | 3.2 | 17.7 | 0.00 | 0.00 | 0.00 | 35 | 1010.9 |
| 20260504231530 | 23 | 188 | 3.2 | 12.9 | 0.00 | 0.00 | 0.00 | 35 | 1010.9 |
| 20260504231031 | 23 | 261 | 4.8 | 19.3 | 0.00 | 0.00 | 0.00 | 35 | 1010.8 |
| 20260504230531 | 23 | 143 | 4.8 | 19.3 | 0.00 | 0.00 | 0.00 | 34 | 1010.9 |
| 20260504230032 | 24 | 110 | 6.4 | 25.7 | 0.00 | 0.00 | 0.00 | 34 | 1010.8 |
| 20260504225530 | 24 | 174 | 6.4 | 25.7 | 0.00 | 0.00 | 0.00 | 33 | 1010.8 |
| 20260504225030 | 24 | 243 | 4.8 | 17.7 | 0.00 | 0.00 | 0.00 | 33 | 1010.8 |
| 20260504224825 | 24 | 143 | 4.8 | 14.5 | 0.00 | 0.00 | 0.00 | 33 | 1010.7 |
| 20260504224029 | 24 | 151 | 6.4 | 24.1 | 0.00 | 0.00 | 0.00 | 33 | 1010.8 |
| 20260504223528 | 24 | 194 | 6.4 | 24.1 | 0.00 | 0.00 | 0.00 | 33 | 1010.8 |
| 20260504223031 | 24 | 134 | 8.0 | 29.0 | 0.00 | 0.00 | 0.00 | 33 | 1010.8 |
| 20260504222531 | 24 | 218 | 6.4 | 29.0 | 0.00 | 0.00 | 0.00 | 32 | 1010.8 |
| 20260504222029 | 25 | 150 | 4.8 | 22.5 | 0.00 | 0.00 | 0.00 | 33 | 1010.8 |
| 20260504221530 | 25 | 173 | 4.8 | 19.3 | 0.00 | 0.00 | 0.00 | 31 | 1010.7 |
| 20260504221030 | 25 | 180 | 3.2 | 14.5 | 0.00 | 0.00 | 0.00 | 32 | 1010.6 |
| 20260504220529 | 25 | 11 | 3.2 | 12.9 | 0.00 | 0.00 | 0.00 | 33 | 1010.6 |
| 20260504220030 | 25 | 143 | 4.8 | 12.9 | 0.00 | 0.00 | 0.00 | 32 | 1010.6 |
| 20260504215531 | 25 | 100 | 4.8 | 17.7 | 0.00 | 0.00 | 0.00 | 32 | 1010.6 |
| 20260504215030 | 25 | 162 | 4.8 | 17.7 | 0.00 | 0.00 | 0.00 | 30 | 1010.8 |
| 20260504214830 | 26 | 132 | 4.8 | 24.1 | 0.00 | 0.00 | 0.00 | 30 | 1010.7 |
| 20260504214029 | 26 | 156 | 4.8 | 24.1 | 0.00 | 0.00 | 0.00 | 29 | 1010.6 |
| 20260504213827 | 26 | 176 | 4.8 | 22.5 | 0.00 | 0.00 | 0.00 | 28 | 1010.8 |
| 20260504213031 | 26 | 138 | 6.4 | 22.5 | 0.00 | 0.00 | 0.00 | 28 | 1010.8 |
| 20260504212528 | 26 | 187 | 6.4 | 19.3 | 0.00 | 0.00 | 0.00 | 28 | 1010.8 |
| 20260504212317 | 26 | 160 | 6.4 | 25.7 | 0.00 | 0.00 | 0.00 | 28 | 1010.8 |
| 20260504211515 | 26 | 156 | 4.8 | 25.7 | 0.00 | 0.00 | 0.00 | 27 | 1010.9 |
| 20260504211009 | 26 | 73 | 6.4 | 24.1 | 0.00 | 0.00 | 0.00 | 29 | 1010.7 |
| 20260504210503 | 26 | 227 | 4.8 | 24.1 | 0.00 | 0.00 | 0.00 | 28 | 1010.9 |
| 20260504210043 | 26 | 172 | 3.2 | 12.9 | 0.00 | 0.00 | 0.00 | 29 | 1010.9 |
| 20260504205003 | 26 | 54 | 4.8 | 19.3 | 0.00 | 0.00 | 0.00 | 28 | 1010.8 |
| 20260504204503 | 26 | 194 | 4.8 | 19.3 | 0.00 | 0.00 | 0.00 | 28 | 1010.8 |
| 20260504204002 | 26 | 152 | 4.8 | 17.7 | 0.00 | 0.00 | 0.00 | 27 | 1010.9 |
| 20260504203503 | 26 | 179 | 3.2 | 17.7 | 0.00 | 0.00 | 0.00 | 28 | 1011.0 |
| 20260504203308 | 26 | 175 | 3.2 | 12.9 | 0.00 | 0.00 | 0.00 | 28 | 1011.0 |
| 20260504202502 | 26 | 175 | 3.2 | 12.9 | 0.00 | 0.00 | 0.00 | 27 | 1011.1 |
| 20260504202002 | 26 | 153 | 4.8 | 14.5 | 0.00 | 0.00 | 0.00 | 28 | 1011.1 |
| 20260504201501 | 26 | 143 | 6.4 | 19.3 | 0.00 | 0.00 | 0.00 | 28 | 1011.1 |
| 20260504201002 | 25 | 223 | 8.0 | 25.7 | 0.00 | 0.00 | 0.00 | 28 | 1011.2 |
| 20260504200502 | 26 | 217 | 6.4 | 25.7 | 0.00 | 0.00 | 0.00 | 28 | 1011.4 |
| 20260504200003 | 26 | 152 | 6.4 | 14.5 | 0.00 | 0.00 | 0.00 | 28 | 1011.2 |
| 20260504195754 | 26 | 205 | 3.2 | 14.5 | 0.00 | 0.00 | 0.00 | 27 | 1011.2 |
| 20260504195002 | 26 | 192 | 3.2 | 12.9 | 0.00 | 0.00 | 0.00 | 27 | 1011.2 |
| 20260504194501 | 26 | 105 | 4.8 | 25.7 | 0.00 | 0.00 | 0.00 | 28 | 1011.3 |
| 20260504194313 | 26 | 166 | 6.4 | 25.7 | 0.00 | 0.00 | 0.00 | 28 | 1011.4 |
| 20260504193457 | 26 | 149 | 8.0 | 22.5 | 0.00 | 0.00 | 0.00 | 27 | 1011.5 |
| 20260504192949 | 25 | 139 | 8.0 | 25.7 | 0.00 | 0.00 | 0.00 | 28 | 1011.5 |
| 20260504192447 | 26 | 187 | 8.0 | 25.7 | 0.00 | 0.00 | 0.00 | 28 | 1011.6 |
| 20260504191947 | 26 | 155 | 4.8 | 17.7 | 0.00 | 0.00 | 0.00 | 27 | 1011.8 |
| 20260504191447 | 26 | 129 | 4.8 | 25.7 | 0.00 | 0.00 | 0.00 | 29 | 1011.9 |
| 20260504190948 | 26 | 234 | 6.4 | 25.7 | 0.00 | 0.00 | 0.00 | 28 | 1012.0 |
| 20260504190449 | 26 | 246 | 6.4 | 22.5 | 0.00 | 0.00 | 0.00 | 27 | 1012.0 |
| 20260504185949 | 26 | 201 | 6.4 | 22.5 | 0.00 | 0.00 | 0.00 | 28 | 1012.2 |
| 20260504185447 | 25 | 242 | 6.4 | 19.3 | 0.00 | 0.00 | 0.00 | 29 | 1012.2 |
| 20260504184948 | 25 | 186 | 6.4 | 22.5 | 0.00 | 0.00 | 0.00 | 29 | 1012.4 |
| 20260504184450 | 25 | 217 | 6.4 | 25.7 | 0.00 | 0.00 | 0.00 | 29 | 1012.5 |
| 20260504183947 | 24 | 181 | 8.0 | 38.6 | 0.00 | 0.00 | 0.00 | 32 | 1012.5 |
| 20260504183448 | 25 | 190 | 6.4 | 38.6 | 0.00 | 0.00 | 0.00 | 29 | 1012.6 |
| 20260504182947 | 25 | 242 | 6.4 | 25.7 | 0.00 | 0.00 | 0.00 | 29 | 1012.7 |
| 20260504182448 | 25 | 222 | 6.4 | 25.7 | 0.00 | 0.00 | 0.00 | 29 | 1012.8 |
| 20260504182253 | 25 | 241 | 6.4 | 25.7 | 0.00 | 0.00 | 0.00 | 29 | 1012.8 |
| 20260504181447 | 25 | 196 | 4.8 | 17.7 | 0.00 | 0.00 | 0.00 | 28 | 1012.9 |
| 20260504180947 | 25 | 257 | 3.2 | 12.9 | 0.00 | 0.00 | 0.00 | 30 | 1012.9 |
| 20260504180447 | 25 | 143 | 3.2 | 12.9 | 0.00 | 0.00 | 0.00 | 28 | 1013.0 |
| 20260504175947 | 25 | 187 | 3.2 | 12.9 | 0.00 | 0.00 | 0.00 | 30 | 1013.1 |
| 20260504175449 | 24 | 210 | 3.2 | 22.5 | 0.00 | 0.00 | 0.00 | 29 | 1013.2 |
| 20260504174946 | 24 | 167 | 6.4 | 22.5 | 0.00 | 0.00 | 0.00 | 31 | 1013.3 |
| 20260504174447 | 23 | 234 | 6.4 | 19.3 | 0.00 | 0.00 | 0.00 | 31 | 1013.3 |
| 20260504173948 | 23 | 269 | 4.8 | 19.3 | 0.00 | 0.00 | 0.00 | 32 | 1013.3 |
| 20260504173543 | 23 | 201 | 4.8 | 14.5 | 0.00 | 0.00 | 0.00 | 32 | 1013.5 |
| 20260504173523 | 24 | 129 | 4.8 | 11.3 | 0.00 | 0.00 | 0.00 | 30 | 1013.5 |
| 20260504172730 | 23 | 210 | 4.8 | 17.7 | 0.00 | 0.00 | 0.00 | 34 | 1013.6 |
| 20260504171939 | 23 | 215 | 6.4 | 17.7 | 0.00 | 0.00 | 0.00 | 31 | 1013.7 |
| 20260504171441 | 23 | 150 | 6.4 | 17.7 | 0.00 | 0.00 | 0.00 | 31 | 1013.7 |
| 20260504170942 | 23 | 223 | 6.4 | 17.7 | 0.00 | 0.00 | 0.00 | 32 | 1013.8 |
| 20260504170440 | 23 | 234 | 4.8 | 14.5 | 0.00 | 0.00 | 0.00 | 30 | 1014.0 |
| 20260504160437 | 21 | 272 | 6.4 | 19.3 | 0.00 | 0.00 | 0.00 | 32 | 1014.7 |
| 20260504150931 | 20 | 125 | 6.4 | 19.3 | 0.00 | 0.00 | 0.00 | 33 | 1015.2 |
| 20260504150429 | 20 | 205 | 6.4 | 19.3 | 0.00 | 0.00 | 0.00 | 34 | 1015.3 |